Nacogdoches, TX

8:53 AM CST on November 22, 2017 (GMT -0600)
Mangham Regional

Weather History for KOCH - March, 2013

Change the Weather History Date:

Monday, March 4, 2013

  Actual Average Record
Temperature  
Mean Temperature 62 °F -  
Max Temperature 77 °F 63 °F 77 °F (2013)
Min Temperature 48 °F 42 °F 15 °F (2002)
Degree Days  
Heating Degree Days 2    
Growing Degree Days 12 (Base 50)    
Moisture  
Dew Point 51 °F    
Average Humidity 67    
Maximum Humidity 88    
Minimum Humidity 41    
Precipitation  
Precipitation 0.00 in - - ()
Sea Level Pressure  
Sea Level Pressure 29.83 in    
Wind  
Wind Speed 12 mph (South)    
Max Wind Speed 29 mph    
Max Gust Speed 36 mph    
Visibility 10 miles    
Events      
Averages and records for this station are not official NWS values.
T = Trace of Precipitation, MM = Missing Value Source: NWS Daily Summary

Daily Weather History Graph

Daily Weather History Graph

Search for Another Location

Airport or City:

Trip Planner

Search our weather history database for the weather conditions in past years. The results will help you decide how hot, cold, wet, or windy it might be!

Date:

Astronomy

Mar. 04, 2013 Rise Set
Actual Time 6:42 AM CST 6:19 PM CST
Civil Twilight 6:17 AM CST 6:43 PM CST
Nautical Twilight 5:49 AM CST 7:11 PM CST
Astronomical Twilight 5:21 AM CST 7:40 PM CST
Moon 12:37 AM CST (3/4) 11:17 AM CST (3/4)
Length of Visible Light 12h 26m
Length of Day
11h 37m
Waning Gibbous, 52% of the Moon is Illuminated
Mar 4
Waning Gibbous
Mar 4
Last Quarter
Mar 11
New
Mar 19
First Quarter
Mar 27
Full

Hourly Weather History & Observations

Time (CST) Temp. Dew Point Humidity Pressure Visibility Wind Dir Wind Speed Gust Speed Precip Events Conditions
12:15 AM 50.0 °F 39.2 °F 66% 29.99 in 10.0 mi South 9.2 mph - N/A   Clear
12:35 AM 48.2 °F 39.2 °F 71% 29.98 in 10.0 mi South 9.2 mph - N/A   Clear
12:55 AM 48.2 °F 41.0 °F 76% 29.98 in 10.0 mi SSE 8.1 mph - N/A   Clear
1:15 AM 48.2 °F 41.0 °F 76% 29.97 in 10.0 mi SSE 9.2 mph - N/A   Clear
1:35 AM 48.2 °F 41.0 °F 76% 29.97 in 10.0 mi South 9.2 mph - N/A   Clear
1:55 AM 48.2 °F 42.8 °F 82% 29.96 in 10.0 mi South 9.2 mph - N/A   Clear
2:15 AM 48.2 °F 42.8 °F 82% 29.96 in 10.0 mi South 9.2 mph - N/A   Clear
2:35 AM 50.0 °F 42.8 °F 76% 29.94 in 10.0 mi South 9.2 mph - N/A   Clear
2:55 AM 50.0 °F 44.6 °F 82% 29.93 in 10.0 mi South 10.4 mph - N/A   Clear
3:15 AM 50.0 °F 44.6 °F 82% 29.92 in 10.0 mi South 11.5 mph - N/A   Clear
3:35 AM 50.0 °F 44.6 °F 82% 29.90 in 10.0 mi South 11.5 mph - N/A   Clear
3:55 AM 50.0 °F 44.6 °F 82% 29.90 in 10.0 mi South 11.5 mph - N/A   Clear
4:15 AM 50.0 °F 44.6 °F 82% 29.90 in 10.0 mi South 10.4 mph 17.3 mph N/A   Clear
4:35 AM 50.0 °F 44.6 °F 82% 29.90 in 10.0 mi South 11.5 mph 17.3 mph N/A   Clear
4:55 AM 50.0 °F 44.6 °F 82% 29.90 in 10.0 mi South 10.4 mph - N/A   Clear
5:15 AM 50.0 °F 44.6 °F 82% 29.90 in 10.0 mi South 9.2 mph - N/A   Clear
5:55 AM 50.0 °F 44.6 °F 82% 29.90 in 10.0 mi South 10.4 mph - N/A   Clear
6:15 AM 50.0 °F 46.4 °F 87% 29.90 in 10.0 mi South 8.1 mph - N/A   Clear
6:35 AM 50.0 °F 46.4 °F 87% 29.89 in 10.0 mi SSE 8.1 mph - N/A   Clear
6:55 AM 50.0 °F 46.4 °F 87% 29.89 in 10.0 mi SSE 9.2 mph - N/A   Clear
7:15 AM 51.8 °F 46.4 °F 82% 29.89 in 10.0 mi South 10.4 mph - N/A   Clear
7:35 AM 51.8 °F 48.2 °F 88% 29.89 in 10.0 mi South 9.2 mph 16.1 mph N/A   Clear
7:55 AM 53.6 °F 48.2 °F 82% 29.88 in 10.0 mi South 10.4 mph - N/A   Clear
8:15 AM 55.4 °F 50.0 °F 82% 29.88 in 10.0 mi South 12.7 mph 17.3 mph N/A   Clear
8:35 AM 57.2 °F 51.8 °F 82% 29.89 in 10.0 mi SSW 11.5 mph 20.7 mph N/A   Scattered Clouds
8:55 AM 60.8 °F 51.8 °F 72% 29.89 in 10.0 mi SSW 18.4 mph 29.9 mph N/A   Mostly Cloudy
9:15 AM 60.8 °F 51.8 °F 72% 29.89 in 10.0 mi SSW 17.3 mph 27.6 mph N/A   Overcast
9:35 AM 60.8 °F 51.8 °F 72% 29.88 in 10.0 mi SSW 16.1 mph 24.2 mph N/A   Overcast
9:55 AM 64.4 °F 53.6 °F 68% 29.87 in 10.0 mi SW 21.9 mph 27.6 mph N/A   Mostly Cloudy
10:15 AM 64.4 °F 53.6 °F 68% 29.85 in 10.0 mi SSW 25.3 mph 32.2 mph N/A   Scattered Clouds
10:35 AM 66.2 °F 53.6 °F 64% 29.85 in 10.0 mi SSW 25.3 mph 32.2 mph N/A   Scattered Clouds
10:55 AM 69.8 °F 53.6 °F 56% 29.85 in 10.0 mi SSW 20.7 mph 35.7 mph N/A   Scattered Clouds
11:15 AM 69.8 °F 53.6 °F 56% 29.84 in 10.0 mi SSW 21.9 mph 31.1 mph N/A   Partly Cloudy
11:35 AM 71.6 °F 53.6 °F 53% 29.83 in 10.0 mi SSW 20.7 mph 34.5 mph N/A   Clear
11:55 AM 73.4 °F 53.6 °F 50% 29.82 in 10.0 mi SSW 28.8 mph 33.4 mph N/A   Clear
12:15 PM 71.6 °F 53.6 °F 53% 29.81 in 10.0 mi SSW 27.6 mph 35.7 mph N/A   Clear
12:55 PM 75.2 °F 53.6 °F 47% 29.80 in 10.0 mi SW 18.4 mph 26.5 mph N/A   Clear
1:15 PM 77.0 °F 53.6 °F 44% 29.79 in 10.0 mi SW 19.6 mph 29.9 mph N/A   Clear
1:35 PM 77.0 °F 53.6 °F 44% 29.77 in 10.0 mi SSW 18.4 mph 28.8 mph N/A   Clear
1:55 PM 73.4 °F 53.6 °F 50% 29.76 in 10.0 mi SSW 19.6 mph 26.5 mph N/A   Clear
2:15 PM 75.2 °F 53.6 °F 47% 29.75 in 10.0 mi SSW 15.0 mph 25.3 mph N/A   Clear
2:35 PM 75.2 °F 53.6 °F 47% 29.74 in 10.0 mi SSW 20.7 mph 27.6 mph N/A   Clear
2:55 PM 75.2 °F 53.6 °F 47% 29.74 in 10.0 mi SSW 13.8 mph 26.5 mph N/A   Clear
3:15 PM 75.2 °F 53.6 °F 47% 29.73 in 10.0 mi SSW 20.7 mph 29.9 mph N/A   Clear
3:35 PM 77.0 °F 53.6 °F 44% 29.73 in 10.0 mi SSW 18.4 mph 25.3 mph N/A   Clear
3:55 PM 77.0 °F 53.6 °F 44% 29.73 in 10.0 mi SSW 19.6 mph 25.3 mph N/A   Clear
4:15 PM 77.0 °F 51.8 °F 41% 29.73 in 10.0 mi SSW 19.6 mph 28.8 mph N/A   Clear
4:35 PM 75.2 °F 53.6 °F 47% 29.73 in 10.0 mi SSW 18.4 mph 25.3 mph N/A   Clear
4:55 PM 75.2 °F 51.8 °F 44% 29.73 in 10.0 mi SSW 16.1 mph 23.0 mph N/A   Clear
5:15 PM 75.2 °F 51.8 °F 44% 29.73 in 10.0 mi SSW 12.7 mph 19.6 mph N/A   Clear
5:35 PM 73.4 °F 53.6 °F 50% 29.73 in 10.0 mi SSW 13.8 mph 20.7 mph N/A   Clear
5:55 PM 73.4 °F 53.6 °F 50% 29.73 in 10.0 mi South 10.4 mph - N/A   Clear
6:15 PM 71.6 °F 53.6 °F 53% 29.73 in 10.0 mi South 9.2 mph - N/A   Clear
6:35 PM 71.6 °F 53.6 °F 53% 29.73 in 10.0 mi South 8.1 mph - N/A   Clear
6:55 PM 71.6 °F 53.6 °F 53% 29.74 in 10.0 mi South 9.2 mph - N/A   Clear
7:15 PM 71.6 °F 53.6 °F 53% 29.75 in 10.0 mi South 8.1 mph - N/A   Clear
7:35 PM 69.8 °F 55.4 °F 60% 29.75 in 10.0 mi South 12.7 mph 24.2 mph N/A   Clear
7:55 PM 68.0 °F 55.4 °F 64% 29.76 in 10.0 mi South 11.5 mph 23.0 mph N/A   Clear
8:35 PM 66.2 °F 57.2 °F 73% 29.78 in 10.0 mi South 11.5 mph - N/A   Clear
8:55 PM 66.2 °F 55.4 °F 68% 29.79 in 10.0 mi South 11.5 mph 18.4 mph N/A   Clear
9:15 PM 64.4 °F 55.4 °F 73% 29.79 in 10.0 mi South 12.7 mph 16.1 mph N/A   Clear
9:35 PM 64.4 °F 55.4 °F 73% 29.79 in 10.0 mi SSE 9.2 mph - N/A   Clear
9:55 PM 64.4 °F 57.2 °F 77% 29.81 in 10.0 mi South 6.9 mph - N/A   Clear
10:15 PM 64.4 °F 57.2 °F 77% 29.81 in 10.0 mi South 8.1 mph - N/A   Clear
10:35 PM 62.6 °F 57.2 °F 82% 29.81 in 10.0 mi South 9.2 mph - N/A   Clear
10:55 PM 62.6 °F 57.2 °F 82% 29.80 in 10.0 mi South 10.4 mph - N/A   Clear
11:15 PM 62.6 °F 57.2 °F 82% 29.80 in 10.0 mi South 10.4 mph - N/A   Clear
11:35 PM 62.6 °F 57.2 °F 82% 29.81 in 10.0 mi South 9.2 mph - N/A   Clear
11:55 PM 62.6 °F 57.2 °F 82% 29.80 in 10.0 mi South 10.4 mph - N/A   Clear